,,PA_Meas_PMT16A,,PR_Meas_QMR101_102,,RH_Meas_QMH101,,SR_Meas_QMS101,,TA_Meas_QMH101,,GenWind,,GenWind,
time,status,PA,status,PR,status,RH,status,SR,status,TA,status,DirAvg,status,SpdAvg,
2016-07-09, 07:18:04,VALID,917.351,VALID,0,INVALID,111.584,VALID,87.2422,VALID,19.4883,VALID,151,VALID,0.844922,
2016-07-09, 07:20:04,VALID,917.403,VALID,0,INVALID,111.531,VALID,113.888,VALID,19.5678,VALID,143,VALID,0.98125,
2016-07-09, 07:21:04,VALID,917.395,VALID,0,INVALID,111.508,VALID,108.623,VALID,19.5663,VALID,160,VALID,1.7418,
2016-07-09, 07:22:04,VALID,917.418,VALID,0,INVALID,111.5,VALID,88.8538,VALID,19.5663,VALID,154,VALID,1.10898,
2016-07-09, 07:26:04,VALID,917.442,VALID,0,INVALID,111.401,VALID,116.036,VALID,19.6428,VALID,143,VALID,0.355469,
2016-07-09, 07:27:04,VALID,917.463,VALID,0,INVALID,111.294,VALID,123.235,VALID,19.7418,VALID,143,VALID,0,
2016-07-09, 07:28:04,VALID,917.439,VALID,0,INVALID,111.332,VALID,143.864,VALID,19.7043,VALID,139,VALID,1.09687,
2016-07-09, 07:29:04,VALID,917.443,VALID,0,INVALID,111.294,VALID,140.211,VALID,19.7613,VALID,146,VALID,0.796094,
2016-07-09, 07:30:04,VALID,917.471,VALID,0,INVALID,111.264,VALID,148.913,VALID,19.8198,VALID,134,VALID,0,
2016-07-09, 07:31:04,VALID,917.503,VALID,0,INVALID,111.249,VALID,152.566,VALID,19.8393,VALID,138,VALID,0.204297,
2016-07-09, 07:32:04,VALID,917.445,VALID,0,INVALID,111.218,VALID,156.434,VALID,19.9368,VALID,140,VALID,0,
2016-07-09, 07:33:04,VALID,917.492,VALID,0,INVALID,111.127,VALID,160.302,VALID,20.0538,VALID,97,VALID,0.134375,
2016-07-09, 07:34:04,VALID,917.529,VALID,0,INVALID,111.088,VALID,162.666,VALID,20.2098,VALID,101,VALID,0.145703,
2016-07-09, 07:35:04,VALID,917.513,VALID,0,INVALID,111.104,VALID,163.955,VALID,20.3479,VALID,137,VALID,0.886719,
2016-07-09, 07:36:04,VALID,917.565,VALID,0,INVALID,111.241,VALID,168.683,VALID,20.3659,VALID,140,VALID,0,
2016-07-09, 07:37:04,VALID,917.556,VALID,0,INVALID,111.401,VALID,172.336,VALID,20.4049,VALID,154,VALID,0,
2016-07-09, 07:38:04,VALID,917.564,VALID,0,INVALID,111.492,VALID,174.592,VALID,20.4634,VALID,149,VALID,0,
2016-07-09, 07:39:04,VALID,917.573,VALID,0,INVALID,111.706,VALID,175.559,VALID,20.4829,VALID,153,VALID,0.740625,
2016-07-09, 07:40:04,VALID,917.551,VALID,0,INVALID,112.049,VALID,182.435,VALID,20.4049,VALID,147,VALID,1.12578,
2016-07-09, 07:41:04,VALID,917.583,VALID,0,INVALID,112.247,VALID,172.336,VALID,20.3659,VALID,140,VALID,1.40313,
2016-07-09, 07:42:04,VALID,917.576,VALID,0,INVALID,112.27,VALID,186.948,VALID,20.4259,VALID,151,VALID,1.3168,
2016-07-09, 07:43:04,VALID,917.602,VALID,0,INVALID,112.392,VALID,190.386,VALID,20.4244,VALID,163,VALID,1.22383,
2016-07-09, 07:44:04,VALID,917.624,VALID,0,INVALID,112.605,VALID,196.402,VALID,20.4244,VALID,132,VALID,1.05859,
2016-07-09, 07:45:04,VALID,917.621,VALID,0,INVALID,112.705,VALID,200.163,VALID,20.4228,VALID,135,VALID,0,
2016-07-09, 07:46:04,VALID,917.604,VALID,0,INVALID,112.705,VALID,204.138,VALID,20.5594,VALID,141,VALID,0,
2016-07-09, 07:47:04,VALID,917.613,VALID,0,INVALID,112.941,VALID,207.791,VALID,20.6179,VALID,143,VALID,1.05859,
2016-07-09, 07:48:04,VALID,917.636,VALID,0,INVALID,113.071,VALID,210.8,VALID,20.7349,VALID,162,VALID,0,
2016-07-09, 07:49:04,VALID,917.59,VALID,0,INVALID,113.406,VALID,213.593,VALID,20.7544,VALID,147,VALID,0,
2016-07-09, 07:50:04,VALID,917.599,VALID,0,INVALID,113.497,VALID,215.957,VALID,20.891,VALID,141,VALID,0,
2016-07-09, 07:51:04,VALID,917.592,VALID,0,INVALID,113.764,VALID,218.428,VALID,21.0275,VALID,143,VALID,0,
2016-07-09, 07:52:04,VALID,917.595,VALID,0,INVALID,114.229,VALID,222.833,VALID,21.0649,VALID,161,VALID,0,
2016-07-09, 07:53:04,VALID,917.597,VALID,0,INVALID,114.511,VALID,226.701,VALID,21.2226,VALID,183,VALID,0.16875,
2016-07-09, 07:54:04,VALID,917.624,VALID,0,INVALID,115.129,VALID,230.676,VALID,21.1624,VALID,146,VALID,0,
2016-07-09, 07:55:04,VALID,917.633,VALID,0,INVALID,115.19,VALID,233.147,VALID,21.1055,VALID,159,VALID,0,
2016-07-09, 07:56:04,VALID,917.599,VALID,0,INVALID,114.702,VALID,236.156,VALID,21.1266,VALID,158,VALID,0,
2016-07-09, 07:57:04,VALID,917.593,VALID,0,INVALID,114.252,VALID,239.379,VALID,21.2047,VALID,156,VALID,0,
2016-07-09, 07:58:04,VALID,917.588,VALID,0,INVALID,114.29,VALID,242.065,VALID,21.3998,VALID,90,VALID,0,
2016-07-09, 07:59:04,VALID,917.586,VALID,0,INVALID,113.978,VALID,245.288,VALID,21.6323,VALID,93,VALID,0,
2016-07-09, 08:00:04,VALID,917.559,VALID,0,INVALID,113.01,VALID,249.156,VALID,21.8469,VALID,126,VALID,0,
2016-07-09, 08:01:04,VALID,917.586,VALID,0,INVALID,111.088,VALID,251.305,VALID,21.9054,VALID,114,VALID,0,
2016-07-09, 08:02:04,VALID,917.587,VALID,0,INVALID,111.294,VALID,254.85,VALID,22.0208,VALID,131,VALID,0,
2016-07-09, 08:03:04,VALID,917.57,VALID,0,INVALID,110.608,VALID,259.148,VALID,22.1184,VALID,139,VALID,0,
2016-07-09, 08:04:04,VALID,917.603,VALID,0,INVALID,111.027,VALID,262.586,VALID,22.1574,VALID,101,VALID,0,
2016-07-09, 08:05:04,VALID,917.618,VALID,0,INVALID,111.012,VALID,266.561,VALID,22.2745,VALID,144,VALID,0,
2016-07-09, 08:06:04,VALID,917.62,VALID,0,INVALID,110.021,VALID,270.644,VALID,22.3916,VALID,145,VALID,0,
2016-07-09, 08:07:04,VALID,917.641,VALID,0,INVALID,109.061,VALID,272.793,VALID,22.5299,VALID,151,VALID,0,
2016-07-09, 08:08:04,VALID,917.647,VALID,0,VALID,104,VALID,276.339,VALID,22.6257,VALID,125,VALID,0,
2016-07-09, 08:09:04,VALID,917.65,VALID,0,VALID,97.9761,VALID,279.347,VALID,22.5637,VALID,152,VALID,0,
2016-07-09, 08:10:04,VALID,917.661,VALID,0,VALID,101.811,VALID,281.496,VALID,22.4891,VALID,140,VALID,0,
2016-07-09, 08:11:04,VALID,917.612,VALID,0,VALID,103,VALID,286.438,VALID,22.5494,VALID,85,VALID,1.35781,
2016-07-09, 08:12:04,VALID,917.663,VALID,0,VALID,103.892,VALID,290.413,VALID,22.4891,VALID,79,VALID,0.0121094,
2016-07-09, 08:13:04,VALID,917.641,VALID,0,VALID,104,VALID,292.885,VALID,22.4891,VALID,167,VALID,0.0121094,
2016-07-09, 08:14:04,VALID,917.634,VALID,0,VALID,104,VALID,297.934,VALID,22.4111,VALID,137,VALID,0,
2016-07-09, 08:15:04,VALID,917.661,VALID,0,VALID,104,VALID,300.405,VALID,22.294,VALID,131,VALID,0,
2016-07-09, 08:16:04,VALID,917.691,VALID,0,VALID,104,VALID,300.405,VALID,22.3525,VALID,175,VALID,0,
2016-07-09, 08:17:04,VALID,917.691,VALID,0,VALID,104,VALID,304.166,VALID,22.4306,VALID,143,VALID,0,
2016-07-09, 08:18:04,VALID,917.701,VALID,0,VALID,104,VALID,307.067,VALID,22.4501,VALID,182,VALID,0.0960938,
2016-07-09, 08:19:04,VALID,917.708,VALID,0,VALID,103.869,VALID,309.753,VALID,22.4289,VALID,153,VALID,0.192969,
2016-07-09, 08:20:04,VALID,917.667,VALID,0,VALID,104,VALID,315.447,VALID,22.3899,VALID,154,VALID,0.836719,
2016-07-09, 08:21:04,VALID,917.664,VALID,0,VALID,104,VALID,317.059,VALID,22.4874,VALID,170,VALID,0.0839844,
2016-07-09, 08:22:04,VALID,917.656,VALID,0,VALID,104,VALID,320.39,VALID,22.6045,VALID,151,VALID,0,
2016-07-09, 08:23:04,VALID,917.631,VALID,0,VALID,101.94,VALID,324.472,VALID,22.6843,VALID,193,VALID,0,
2016-07-09, 08:24:04,VALID,917.657,VALID,0,VALID,102.245,VALID,328.555,VALID,22.7623,VALID,145,VALID,0,
2016-07-09, 08:25:04,VALID,917.662,VALID,0,VALID,102.161,VALID,331.456,VALID,22.7233,VALID,131,VALID,1.26758,
2016-07-09, 08:26:04,VALID,917.671,VALID,0,VALID,102.954,VALID,332.101,VALID,22.7411,VALID,140,VALID,0,
2016-07-09, 08:27:04,VALID,917.67,VALID,0,VALID,101.643,VALID,336.935,VALID,22.7411,VALID,150,VALID,0.0613281,
2016-07-09, 08:28:04,VALID,917.722,VALID,0,VALID,102.215,VALID,340.374,VALID,22.7021,VALID,164,VALID,0.471094,
2016-07-09, 08:29:04,VALID,917.707,VALID,0,VALID,103.617,VALID,344.134,VALID,22.7606,VALID,190,VALID,0.262109,
2016-07-09, 08:30:04,VALID,917.694,VALID,0,VALID,102.756,VALID,346.175,VALID,22.9167,VALID,172,VALID,0,
2016-07-09, 08:31:04,VALID,917.725,VALID,0,VALID,101.422,VALID,350.366,VALID,23.0924,VALID,163,VALID,0,
2016-07-09, 08:32:04,VALID,917.745,VALID,0,VALID,88.6222,VALID,355.2,VALID,23.2094,VALID,146,VALID,0,
2016-07-09, 08:33:04,VALID,917.759,VALID,0,VALID,88.1114,VALID,356.167,VALID,23.307,VALID,170,VALID,0,
2016-07-09, 08:34:04,VALID,917.778,VALID,0,VALID,92.8913,VALID,360.035,VALID,23.3851,VALID,156,VALID,0,
2016-07-09, 08:35:04,VALID,917.764,VALID,0,VALID,85.9769,VALID,363.151,VALID,23.5022,VALID,144,VALID,0,
2016-07-09, 08:36:04,VALID,917.783,VALID,0,VALID,84.5132,VALID,368.093,VALID,23.4632,VALID,156,VALID,0.30625,
2016-07-09, 08:37:04,VALID,917.793,VALID,0,VALID,86.4724,VALID,370.565,VALID,23.543,VALID,157,VALID,0,
2016-07-09, 08:38:04,VALID,917.811,VALID,0,VALID,83.3544,VALID,371.854,VALID,23.6797,VALID,112,VALID,0,
2016-07-09, 08:39:04,VALID,917.772,VALID,0,VALID,84.5132,VALID,375.937,VALID,23.6974,VALID,137,VALID,0,
2016-07-09, 08:40:04,VALID,917.776,VALID,0,VALID,82.3634,VALID,378.085,VALID,23.7169,VALID,154,VALID,0,
2016-07-09, 08:41:04,VALID,917.754,VALID,0,VALID,82.5387,VALID,379.375,VALID,23.6992,VALID,203,VALID,0,
2016-07-09, 08:42:04,VALID,917.762,VALID,0,VALID,82.8818,VALID,386.573,VALID,23.8358,VALID,124,VALID,0,
2016-07-09, 08:43:04,VALID,917.768,VALID,0,VALID,81.3647,VALID,386.573,VALID,24.0097,VALID,188,VALID,0,
2016-07-09, 08:44:04,VALID,917.762,VALID,0,VALID,80.1755,VALID,391.408,VALID,24.1464,VALID,172,VALID,0,
2016-07-09, 08:45:04,VALID,917.784,VALID,0,VALID,79.8324,VALID,396.565,VALID,24.1659,VALID,149,VALID,0,
2016-07-09, 08:46:04,VALID,917.801,VALID,0,VALID,80.4194,VALID,397.103,VALID,24.244,VALID,149,VALID,0,
2016-07-09, 08:47:04,VALID,917.795,VALID,0,VALID,78.079,VALID,401.83,VALID,24.4392,VALID,186,VALID,0,
2016-07-09, 08:48:04,VALID,917.821,VALID,0,VALID,77.7741,VALID,403.549,VALID,24.5192,VALID,186,VALID,0,
2016-07-09, 08:49:04,VALID,917.824,VALID,0,VALID,77.8427,VALID,396.458,VALID,24.5545,VALID,182,VALID,0,
2016-07-09, 08:50:04,VALID,917.834,VALID,0,VALID,77.8122,VALID,404.838,VALID,24.5954,VALID,170,VALID,0,
2016-07-09, 08:51:04,VALID,917.854,VALID,0,VALID,77.0727,VALID,415.367,VALID,24.5564,VALID,154,VALID,0,
2016-07-09, 08:52:04,VALID,917.873,VALID,0,VALID,77.553,VALID,418.376,VALID,24.4783,VALID,173,VALID,0,
2016-07-09, 08:53:04,VALID,917.859,VALID,0,VALID,78.1858,VALID,424.607,VALID,24.3806,VALID,206,VALID,0,
2016-07-09, 08:54:04,VALID,917.862,VALID,0,VALID,78.971,VALID,413.863,VALID,24.4392,VALID,190,VALID,0,
2016-07-09, 08:55:04,VALID,917.866,VALID,0,VALID,77.0804,VALID,410.748,VALID,24.5759,VALID,208,VALID,0,
2016-07-09, 08:56:04,VALID,917.872,VALID,0,VALID,77.0346,VALID,430.302,VALID,24.8297,VALID,208,VALID,0,
2016-07-09, 08:57:04,VALID,917.9,VALID,0,VALID,75.1516,VALID,433.955,VALID,24.9664,VALID,182,VALID,0,
2016-07-09, 08:58:04,VALID,917.908,VALID,0,VALID,72.3767,VALID,427.508,VALID,24.9664,VALID,134,VALID,0,
2016-07-09, 08:59:04,VALID,917.891,VALID,0,VALID,72.1556,VALID,441.153,VALID,24.8669,VALID,110,VALID,0.759766,
2016-07-09, 09:00:04,VALID,917.91,VALID,0,VALID,75.67,VALID,443.087,VALID,24.8297,VALID,130,VALID,0,
2016-07-09, 09:01:04,VALID,917.885,VALID,0,VALID,74.5646,VALID,436.533,VALID,24.9078,VALID,167,VALID,0.00429688,
2016-07-09, 09:02:04,VALID,917.87,VALID,0,VALID,73.9243,VALID,453.402,VALID,24.8669,VALID,123,VALID,0.300391,
2016-07-09, 09:03:04,VALID,917.907,VALID,0,VALID,76.0131,VALID,178.46,VALID,24.9078,VALID,135,VALID,0,
2016-07-09, 09:04:04,VALID,917.911,VALID,0,VALID,74.0615,VALID,468.981,VALID,24.8688,VALID,137,VALID,0.769531,
2016-07-09, 09:05:04,VALID,917.901,VALID,0,VALID,77.0041,VALID,469.625,VALID,24.8688,VALID,35,VALID,0.324219,
2016-07-09, 09:06:04,VALID,917.909,VALID,0,VALID,76.0131,VALID,461.46,VALID,25.1012,VALID,44,VALID,0,
2016-07-09, 09:07:04,VALID,917.915,VALID,0,VALID,74.4427,VALID,466.295,VALID,25.2574,VALID,65,VALID,0.980469,
2016-07-09, 09:08:04,VALID,917.891,VALID,0,VALID,75.3575,VALID,468.551,VALID,25.1226,VALID,28,VALID,1.69062,
2016-07-09, 09:09:04,VALID,917.919,VALID,0,VALID,74.7323,VALID,475.642,VALID,24.984,VALID,9,VALID,0.0703125,
2016-07-09, 09:10:04,VALID,917.919,VALID,0,VALID,76.1351,VALID,469.84,VALID,24.9645,VALID,40,VALID,0,
2016-07-09, 09:11:04,VALID,917.931,VALID,0,VALID,75.8682,VALID,465.865,VALID,25.1422,VALID,44,VALID,0,
2016-07-09, 09:12:04,VALID,917.956,VALID,0,VALID,74.1911,VALID,452.542,VALID,25.396,VALID,46,VALID,0,
2016-07-09, 09:13:04,VALID,917.953,VALID,0,VALID,73.8557,VALID,464.361,VALID,25.3179,VALID,85,VALID,0,
2016-07-09, 09:14:04,VALID,917.975,VALID,0,VALID,73.0399,VALID,464.146,VALID,25.1617,VALID,121,VALID,0,
2016-07-09, 09:15:04,VALID,917.976,VALID,0,VALID,73.5888,VALID,460.063,VALID,25.1422,VALID,132,VALID,0,
2016-07-09, 09:16:04,VALID,917.964,VALID,0,VALID,72.1023,VALID,478.543,VALID,25.357,VALID,7,VALID,0,
2016-07-09, 09:17:04,VALID,917.974,VALID,0,VALID,71.0502,VALID,495.304,VALID,25.5113,VALID,355,VALID,0.0289063,
2016-07-09, 09:18:04,VALID,917.968,VALID,0,VALID,72.5216,VALID,506.263,VALID,25.5523,VALID,36,VALID,0.075,
2016-07-09, 09:19:04,VALID,917.999,VALID,0,VALID,70.1507,VALID,503.899,VALID,25.4741,VALID,156,VALID,0,
2016-07-09, 09:20:04,VALID,917.984,VALID,0,VALID,70.7758,VALID,512.279,VALID,25.5327,VALID,196,VALID,0,
2016-07-09, 09:21:04,VALID,917.981,VALID,0,VALID,69.8076,VALID,523.776,VALID,25.6675,VALID,200,VALID,0,
2016-07-09, 09:22:04,VALID,917.998,VALID,0,VALID,73.5278,VALID,521.197,VALID,25.8042,VALID,56,VALID,0,
2016-07-09, 09:23:04,VALID,918.001,VALID,0,VALID,73.1772,VALID,521.627,VALID,25.689,VALID,50,VALID,0,
2016-07-09, 09:24:04,VALID,917.996,VALID,0,VALID,74.3512,VALID,517.114,VALID,25.6109,VALID,37,VALID,0,
2016-07-09, 09:25:04,VALID,918.028,VALID,0,VALID,74.1682,VALID,535.379,VALID,25.7085,VALID,37,VALID,0,
2016-07-09, 09:26:04,VALID,918.034,VALID,0,VALID,73.0171,VALID,527.966,VALID,25.7476,VALID,37,VALID,0,
2016-07-09, 09:27:04,VALID,918.033,VALID,0,VALID,73.787,VALID,541.933,VALID,25.6694,VALID,37,VALID,0,
2016-07-09, 09:28:04,VALID,918.037,VALID,0,VALID,75.0754,VALID,568.149,VALID,25.7261,VALID,37,VALID,0,
2016-07-09, 09:29:04,VALID,918.048,VALID,0,VALID,74.0539,VALID,582.224,VALID,25.7866,VALID,37,VALID,0,
2016-07-09, 09:30:04,VALID,918.044,VALID,0,VALID,73.848,VALID,582.976,VALID,25.98,VALID,353,VALID,0,
2016-07-09, 09:31:04,VALID,918.06,VALID,0,VALID,73.8023,VALID,577.066,VALID,26.0992,VALID,22,VALID,0,
2016-07-09, 09:32:04,VALID,918.038,VALID,0,VALID,70.387,VALID,588.133,VALID,26.273,VALID,36,VALID,0,
2016-07-09, 09:33:04,VALID,918.024,VALID,0,VALID,71.4238,VALID,600.918,VALID,26.2144,VALID,45,VALID,0,
2016-07-09, 09:34:04,VALID,918.032,VALID,0,VALID,71.2027,VALID,616.39,VALID,26.2339,VALID,34,VALID,0,
2016-07-09, 09:35:04,VALID,918.031,VALID,0,VALID,70.387,VALID,620.043,VALID,26.1948,VALID,285,VALID,0,
2016-07-09, 09:36:04,VALID,918.018,VALID,0,VALID,71.0121,VALID,584.265,VALID,26.1147,VALID,321,VALID,0,
2016-07-09, 09:37:04,VALID,918.019,VALID,0,VALID,71.9574,VALID,626.704,VALID,26.2144,VALID,348,VALID,0,
2016-07-09, 09:38:04,VALID,917.999,VALID,0,VALID,70.5776,VALID,627.241,VALID,26.2925,VALID,322,VALID,0,
2016-07-09, 09:39:04,VALID,918.027,VALID,0,VALID,71.3247,VALID,631.217,VALID,26.3511,VALID,348,VALID,0,
2016-07-09, 09:40:04,VALID,918.007,VALID,0,VALID,69.2282,VALID,601.885,VALID,26.4272,VALID,276,VALID,0,
2016-07-09, 09:41:04,VALID,918.01,VALID,0,VALID,70.3184,VALID,227.775,VALID,26.4683,VALID,261,VALID,0,
2016-07-09, 09:42:04,VALID,918.016,VALID,0,VALID,70.2498,VALID,229.924,VALID,26.3706,VALID,290,VALID,0,
2016-07-09, 09:43:04,VALID,917.96,VALID,0,VALID,70.0439,VALID,236.371,VALID,26.2144,VALID,267,VALID,0,
2016-07-09, 09:44:04,VALID,917.95,VALID,0,VALID,71.1112,VALID,232.288,VALID,26.0952,VALID,226,VALID,0,
2016-07-09, 09:45:04,VALID,917.922,VALID,0,VALID,71.2332,VALID,253.561,VALID,26.1753,VALID,228,VALID,0,
2016-07-09, 09:46:04,VALID,917.855,VALID,0,VALID,69.7924,VALID,237.338,VALID,26.2514,VALID,224,VALID,0,
2016-07-09, 09:47:04,VALID,917.858,VALID,0,VALID,70.4404,VALID,219.502,VALID,26.2144,VALID,125,VALID,0,
2016-07-09, 09:48:04,VALID,917.868,VALID,0,VALID,71.1951,VALID,210.585,VALID,26.1753,VALID,127,VALID,0,
2016-07-09, 09:49:04,VALID,917.836,VALID,0,VALID,70.4404,VALID,219.502,VALID,26.1362,VALID,141,VALID,0,
2016-07-09, 09:50:04,VALID,917.822,VALID,0,VALID,71.3399,VALID,221.329,VALID,25.98,VALID,141,VALID,0,
2016-07-09, 09:51:04,VALID,917.83,VALID,0,VALID,72.209,VALID,220.147,VALID,25.9019,VALID,141,VALID,0,
2016-07-09, 09:52:04,VALID,917.861,VALID,0,VALID,72.0413,VALID,214.345,VALID,25.8022,VALID,103,VALID,0,
2016-07-09, 09:53:04,VALID,917.859,VALID,0,VALID,72.1709,VALID,210.047,VALID,25.7827,VALID,127,VALID,0,
2016-07-09, 09:54:04,VALID,917.868,VALID,0,VALID,73.1314,VALID,206.18,VALID,25.7066,VALID,165,VALID,0,
2016-07-09, 09:55:04,VALID,917.853,VALID,0,VALID,74.2826,VALID,206.072,VALID,25.6851,VALID,165,VALID,0,
2016-07-09, 09:56:04,VALID,917.83,VALID,0,VALID,73.1695,VALID,218.213,VALID,25.607,VALID,165,VALID,0,
2016-07-09, 09:57:04,VALID,917.845,VALID,0,VALID,73.4592,VALID,214.775,VALID,25.6284,VALID,165,VALID,0,
2016-07-09, 09:58:04,VALID,917.839,VALID,0,VALID,73.9776,VALID,221.544,VALID,25.7456,VALID,165,VALID,0,
2016-07-09, 09:59:04,VALID,917.841,VALID,0,VALID,72.5902,VALID,221.221,VALID,25.8237,VALID,164,VALID,0,
2016-07-09, 10:00:04,VALID,917.845,VALID,0,VALID,72.5139,VALID,214.453,VALID,25.8237,VALID,149,VALID,0,
2016-07-09, 10:01:04,VALID,917.827,VALID,0,VALID,71.6754,VALID,224.23,VALID,25.8628,VALID,149,VALID,0,
2016-07-09, 10:02:04,VALID,917.826,VALID,0,VALID,72.3462,VALID,329.737,VALID,25.8628,VALID,149,VALID,0,
2016-07-09, 10:03:04,VALID,917.807,VALID,0,VALID,70.913,VALID,725.12,VALID,25.9604,VALID,156,VALID,0,
2016-07-09, 10:04:04,VALID,917.848,VALID,0,VALID,70.2879,VALID,520.23,VALID,26.0776,VALID,183,VALID,0,
2016-07-09, 10:05:04,VALID,917.861,VALID,0,VALID,70.0897,VALID,615.208,VALID,26.1733,VALID,252,VALID,0,
2016-07-09, 10:06:04,VALID,917.851,VALID,0,VALID,70.1812,VALID,280.314,VALID,26.2925,VALID,295,VALID,0,
2016-07-09, 10:07:04,VALID,917.809,VALID,0,VALID,68.8928,VALID,548.809,VALID,26.3882,VALID,307,VALID,0,
2016-07-09, 10:08:04,VALID,917.78,VALID,0,VALID,69.0529,VALID,197.047,VALID,26.312,VALID,331,VALID,0,
2016-07-09, 10:09:04,VALID,917.764,VALID,0,VALID,69.617,VALID,594.364,VALID,26.1362,VALID,24,VALID,0,
2016-07-09, 10:10:04,VALID,917.735,VALID,0,VALID,71.4162,VALID,715.343,VALID,25.98,VALID,289,VALID,0,
2016-07-09, 10:11:04,VALID,917.734,VALID,0,VALID,71.7516,VALID,712.442,VALID,26.019,VALID,307,VALID,0,
2016-07-09, 10:12:04,VALID,917.719,VALID,0,VALID,71.7592,VALID,579,VALID,26.2339,VALID,320,VALID,0,
2016-07-09, 10:13:04,VALID,917.728,VALID,0,VALID,71.2179,VALID,664.846,VALID,26.4468,VALID,311,VALID,0,
2016-07-09, 10:14:04,VALID,917.728,VALID,0,VALID,70.0821,VALID,673.549,VALID,26.5444,VALID,288,VALID,0,
2016-07-09, 10:15:04,VALID,917.751,VALID,0,VALID,70.9511,VALID,211.337,VALID,26.5269,VALID,25,VALID,0,
2016-07-09, 10:16:04,VALID,917.732,VALID,0,VALID,69.4493,VALID,215.312,VALID,26.312,VALID,299,VALID,0.00703125,
2016-07-09, 10:17:04,VALID,917.735,VALID,0,VALID,71.4009,VALID,254.528,VALID,25.646,VALID,271,VALID,0.100781,
2016-07-09, 10:18:04,VALID,917.754,VALID,0,VALID,73.1543,VALID,467.799,VALID,25.3941,VALID,360,VALID,0,
2016-07-09, 10:19:04,VALID,917.731,VALID,0,VALID,75.5709,VALID,660.978,VALID,25.3726,VALID,14,VALID,0,
2016-07-09, 10:20:04,VALID,917.751,VALID,0,VALID,74.8772,VALID,751.551,VALID,25.5484,VALID,34,VALID,0,
2016-07-09, 10:21:04,VALID,917.764,VALID,0,VALID,74.1835,VALID,747.576,VALID,25.7632,VALID,347,VALID,0,
2016-07-09, 10:22:04,VALID,917.746,VALID,0,VALID,72.6816,VALID,740.484,VALID,25.9214,VALID,4,VALID,0,
2016-07-09, 10:23:04,VALID,917.74,VALID,0,VALID,71.7973,VALID,743.063,VALID,26.2124,VALID,4,VALID,0,
2016-07-09, 10:24:04,VALID,917.735,VALID,0,VALID,70.6996,VALID,746.071,VALID,26.603,VALID,355,VALID,0,
2016-07-09, 10:25:04,VALID,917.759,VALID,0,VALID,68.8242,VALID,750.369,VALID,26.7398,VALID,312,VALID,0,
2016-07-09, 10:26:04,VALID,917.772,VALID,0,VALID,68.6107,VALID,741.237,VALID,26.7593,VALID,330,VALID,0,
2016-07-09, 10:27:04,VALID,917.705,VALID,0,VALID,68.8318,VALID,734.253,VALID,26.857,VALID,336,VALID,0,
2016-07-09, 10:28:04,VALID,917.743,VALID,0,VALID,66.9107,VALID,750.047,VALID,26.896,VALID,284,VALID,0.0105469,
2016-07-09, 10:29:04,VALID,917.709,VALID,0,VALID,68.2219,VALID,777.014,VALID,26.8765,VALID,285,VALID,0,
2016-07-09, 10:30:04,VALID,917.718,VALID,0,VALID,67.5968,VALID,758.964,VALID,26.8549,VALID,299,VALID,0,
2016-07-09, 10:31:04,VALID,917.728,VALID,0,VALID,68.8852,VALID,172.443,VALID,26.564,VALID,12,VALID,0.0949219,
2016-07-09, 10:32:04,VALID,917.737,VALID,0,VALID,69.1825,VALID,165.889,VALID,26.3471,VALID,356,VALID,0,
2016-07-09, 10:33:04,VALID,917.697,VALID,0,VALID,71.2942,VALID,184.262,VALID,26.0581,VALID,16,VALID,0.569141,
2016-07-09, 10:34:04,VALID,917.685,VALID,0,VALID,72.6359,VALID,529.685,VALID,25.8237,VALID,22,VALID,0,
2016-07-09, 10:35:04,VALID,917.683,VALID,0,VALID,71.8202,VALID,804.197,VALID,25.8433,VALID,14,VALID,0,
2016-07-09, 10:36:04,VALID,917.72,VALID,0,VALID,73.8633,VALID,187.055,VALID,25.9409,VALID,21,VALID,0.0644531,
2016-07-09, 10:37:04,VALID,917.699,VALID,0,VALID,72.7884,VALID,178.352,VALID,25.8433,VALID,4,VALID,0,
2016-07-09, 10:38:04,VALID,917.678,VALID,0,VALID,73.1086,VALID,168.253,VALID,25.7261,VALID,25,VALID,0.428516,
2016-07-09, 10:39:04,VALID,917.688,VALID,0,VALID,73.5202,VALID,193.179,VALID,25.5308,VALID,9,VALID,0,
2016-07-09, 10:40:04,VALID,917.689,VALID,0,VALID,74.7095,VALID,255.173,VALID,25.3746,VALID,352,VALID,0,
2016-07-09, 10:41:04,VALID,917.686,VALID,0,VALID,76.0512,VALID,371.424,VALID,25.355,VALID,34,VALID,0,
2016-07-09, 10:42:04,VALID,917.693,VALID,0,VALID,75.205,VALID,467.906,VALID,25.4331,VALID,11,VALID,0,
2016-07-09, 10:43:04,VALID,917.671,VALID,0,VALID,73.8252,VALID,768.527,VALID,25.5308,VALID,14,VALID,0,
2016-07-09, 10:44:04,VALID,917.654,VALID,0,VALID,74.3359,VALID,720.178,VALID,25.6851,VALID,3,VALID,0,
2016-07-09, 10:45:04,VALID,917.695,VALID,0,VALID,73.7337,VALID,600.274,VALID,25.98,VALID,357,VALID,0,
2016-07-09, 10:46:04,VALID,917.697,VALID,0,VALID,71.2713,VALID,673.334,VALID,26.2925,VALID,12,VALID,0,
2016-07-09, 10:47:04,VALID,917.722,VALID,0,VALID,70.326,VALID,753.7,VALID,26.6636,VALID,24,VALID,0,
2016-07-09, 10:48:04,VALID,917.701,VALID,0,VALID,67.0632,VALID,742.311,VALID,26.9567,VALID,6,VALID,0.871484,
2016-07-09, 10:49:04,VALID,917.696,VALID,0,VALID,69.0605,VALID,705.351,VALID,26.9546,VALID,35,VALID,0,
2016-07-09, 10:50:04,VALID,917.67,VALID,0,VALID,66.6973,VALID,712.979,VALID,27.0544,VALID,343,VALID,0,
2016-07-09, 10:51:04,VALID,917.672,VALID,0,VALID,65.3174,VALID,722.649,VALID,27.0523,VALID,332,VALID,0,
2016-07-09, 10:52:04,VALID,917.655,VALID,0,VALID,66.7201,VALID,737.046,VALID,27.1305,VALID,325,VALID,0,
2016-07-09, 10:53:04,VALID,917.607,VALID,0,VALID,68.039,VALID,737.798,VALID,27.2498,VALID,355,VALID,0,
2016-07-09, 10:54:04,VALID,917.567,VALID,0,VALID,70.0744,VALID,724.476,VALID,27.4256,VALID,30,VALID,0.343359,
2016-07-09, 10:55:04,VALID,917.574,VALID,0,VALID,66.7201,VALID,724.583,VALID,27.6601,VALID,12,VALID,0,
2016-07-09, 10:56:04,VALID,917.561,VALID,0,VALID,65.3784,VALID,713.194,VALID,27.8164,VALID,318,VALID,0.307031,
2016-07-09, 10:57:04,VALID,917.593,VALID,0,VALID,64.9286,VALID,713.302,VALID,27.8925,VALID,315,VALID,1.10312,
2016-07-09, 10:58:04,VALID,917.598,VALID,0,VALID,62.9847,VALID,702.021,VALID,27.9337,VALID,323,VALID,0.525781,
2016-07-09, 10:59:04,VALID,917.595,VALID,0,VALID,61.5286,VALID,702.987,VALID,27.8555,VALID,290,VALID,1.25664,
2016-07-09, 11:00:04,VALID,917.635,VALID,0,VALID,62.108,VALID,723.509,VALID,27.4821,VALID,294,VALID,0,
2016-07-09, 11:01:04,VALID,917.588,VALID,0,VALID,64.3035,VALID,731.782,VALID,27.0348,VALID,282,VALID,0,
2016-07-09, 11:02:04,VALID,917.561,VALID,0,VALID,67.4672,VALID,750.262,VALID,27.0719,VALID,29,VALID,0,
2016-07-09, 11:03:04,VALID,917.569,VALID,0,VALID,65.9044,VALID,744.352,VALID,27.404,VALID,35,VALID,0,
2016-07-09, 11:04:04,VALID,917.577,VALID,0,VALID,64.0443,VALID,738.336,VALID,27.658,VALID,300,VALID,0,
2016-07-09, 11:05:04,VALID,917.584,VALID,0,VALID,65.6071,VALID,737.261,VALID,27.8751,VALID,11,VALID,0,